ATLAS D R/B, 1616

Orbit data source: Space-Track

ATLAS D R/B, 1616 is space debris in LEO originally from a launch on Tue, 05 Oct 1965 UTC launched from the Air Force Western Test Range (AFWTR). Debris objects in space refer to the collection of defunct objects orbiting the Earth. Examples of debris include non-operational satellites, rocket bodies, and fragments generated from explosions, collisions, or faulty payload assembly.

Loading next visibility...
Identifier
1616, 1965-078B
Orbit
LEO
Country
Flag of USUS
Related business
Manufacturer
ABL
Mission
Spacecraft
Bus & Motor
ALTAIR, Unknown motor
Mass
70 kg wet, 70 kg dry
Launch date (UTC)
1965-10-05 (60 years ago)
Launch vehicle
Unknown
Launch site
Air Force Western Test Range (AFWTR)
Object type
Payload
Rocket body
Debris
Shape & HBR
Cyl, 1.6 m
Radar Cross Section
8.765 m², Medium (>0.1 m² and < 1m²)

Expand to show TLE details & history
Last TLE update: 14 hours ago

TLE from 14 hours ago
0 ATLAS D R/B
1 01616U 65078B   25258.25305474  .00013136  00000-0  11617-2 0  9994
2 01616 144.2341  58.6545 0985694 146.7285 219.9343 13.33294224713939
Epoch: 2025-09-15T06:04Z
TLE epoch observation values (Epoch: 2025-09-15T06:04:23.929Z)
Latitude
-0.00002°
Longitude
-26.90554°
Altitude
1,727.965 km
Speed
6.733 km/s
True Right ascension
03h 54m 37s
True Declination
0° 00' 00"
Sunlit
Object was in daylight at epoch
Visualization orbit readout
Latitude
Unknown
Longitude
Unknown
Altitude
Unknown
Speed
Unknown
Apparent Right ascension
Unknown
Apparent Declination
Unknown
Sunlit
N/A
Visualization observer readout
Local Sidereal Time
12:24:48
Azimuth
Unknown
Elevation
Unknown
Doppler factor
Unknown
Orbital elements
Apogee altitude
1,878.059 km
Perigee altitude
396.48 km
Semi-major axis
7,515.406 km
Eccentricity
0.09857
Inclination
144.2341°
RAAN
58.6545°
Arg. of periapsis
146.7285°
True anomaly
213.32602°
Mean anomaly
219.9343°
Eccentric anomaly
216.56947°
Mean motion
3.33131 °/min
Orbital period
108.07 mins
BSTAR
0.0011617
Loading maneuver chart data...
Computing Atmospheric mass density...
Loading historical data...
Loading historical data...
Loading historical data...
Loading historical data...
Loading historical data...
Loading historical data...
Loading historical data...
Other satellites on launch #78 in the year 1965 (1965-10-05 UTC)

Documentation

Showing up to 5 results
|